Lynchburg, VA

6:08 AM EDT on October 15, 2019 (GMT -0400)
Lynchburg Regional-Glenn

Weather History for KLYH - August, 2019

Change the Weather History Date:

Tuesday, August 20, 2019

  Actual Average Record
Temperature  
Mean Temperature 82 °F 74 °F  
Max Temperature 95 °F 85 °F 102 °F (1983)
Min Temperature 69 °F 63 °F 50 °F (1998)
Degree Days  
Heating Degree Days 0 0  
Month to date heating degree days 0 0  
Since 1 June heating degree days 2 15  
Since 1 July heating degree days 0 1  
Cooling Degree Days 17 9  
Month to date cooling degree days 269 194  
Year to date cooling degree days 1124 808  
Since 1 June cooling degree days 912 726  
Growing Degree Days 32 (Base 50)    
Moisture  
Dew Point 70 °F    
Average Humidity 73    
Maximum Humidity 97    
Minimum Humidity 45    
Precipitation  
Precipitation T in 0.10 in 1.24 in (1969)
Month to date precipitation 2.41 2.09  
Year to date precipitation 26.75 26.76  
Snow  
Snow 0.00 in - - ()
Month to date snowfall 0.0  
Since 1 June snowfall 0.0  
Since 1 July snowfall 0.0  
Snow Depth 0.00 in    
Sea Level Pressure  
Sea Level Pressure 30.07 in    
Wind  
Wind Speed 2 mph ()    
Max Wind Speed 12 mph    
Max Gust Speed 15 mph    
Visibility 9.8 miles    
Events Rain , Thunderstorm    
T = Trace of Precipitation, MM = Missing Value Source: Averaged Metar Reports

Daily Weather History Graph

Daily Weather History Graph

Search for Another Location

Airport or City:

Astronomy

Aug. 20, 2019 Rise Set
Actual Time 6:37 AM EDT 8:02 PM EDT
Civil Twilight 6:09 AM EDT 8:30 PM EDT
Nautical Twilight 5:36 AM EDT 9:02 PM EDT
Astronomical Twilight 5:02 AM EDT 9:37 PM EDT
Moon 10:56 PM EDT (8/20) 11:07 AM EDT (8/20)
Length of Visible Light 14h 20m
Length of Day
13h 25m
Waning Gibbous, 78% of the Moon is Illuminated
Aug 20
Waning Gibbous
Aug 23
Last Quarter
Aug 30
New
Sep 5
First Quarter
Sep 14
Full

Hourly Weather History & Observations

Time (EDT) Temp. Heat Index Dew Point Humidity Pressure Visibility Wind Dir Wind Speed Gust Speed Precip Events Conditions
12:54 AM 73.0 °F - 69.1 °F 87% 30.06 in 10.0 mi Calm Calm - N/A   Clear
1:54 AM 72.0 °F - 69.1 °F 91% 30.05 in 10.0 mi Calm Calm - N/A   Clear
2:54 AM 71.1 °F - 69.1 °F 93% 30.05 in 10.0 mi South 4.6 mph - N/A   Clear
3:54 AM 71.1 °F - 69.1 °F 93% 30.06 in 10.0 mi Calm Calm - N/A   Clear
4:54 AM 71.1 °F - 69.1 °F 93% 30.06 in 10.0 mi Calm Calm - N/A   Clear
5:54 AM 70.0 °F - 68.0 °F 93% 30.07 in 9.0 mi Calm Calm - N/A   Clear
6:54 AM 69.1 °F - 68.0 °F 96% 30.09 in 5.0 mi Calm Calm - N/A   Clear
7:54 AM 73.9 °F - 71.1 °F 91% 30.10 in 10.0 mi Calm Calm - N/A   Clear
8:54 AM 81.0 °F 84.9 °F 71.1 °F 72% 30.10 in 10.0 mi Calm Calm - N/A   Clear
9:54 AM 86.0 °F 91.5 °F 71.1 °F 61% 30.10 in 10.0 mi Variable 3.5 mph - N/A   Clear
10:54 AM 89.1 °F 93.7 °F 69.1 °F 52% 30.10 in 10.0 mi Calm Calm - 0.00 in   Clear
11:54 AM 90.0 °F 94.5 °F 69.1 °F 50% 30.10 in 10.0 mi Variable 4.6 mph - N/A   Clear
12:54 PM 91.9 °F 97.4 °F 70.0 °F 48% 30.09 in 10.0 mi Variable 4.6 mph - N/A   Clear
1:54 PM 93.0 °F 97.9 °F 69.1 °F 45% 30.07 in 10.0 mi Variable 4.6 mph - N/A   Clear
3:39 PM 87.1 °F 93.6 °F 72.0 °F 61% 30.08 in 10.0 mi WSW 3.5 mph - 0.00 in Rain , Thunderstorm Light Rain
3:54 PM 86.0 °F 92.2 °F 72.0 °F 63% 30.05 in 10.0 mi West 6.9 mph - 0.00 in Thunderstorm Partly Cloudy
4:04 PM 86.0 °F 92.2 °F 72.0 °F 63% 30.08 in 10.0 mi Calm Calm - N/A   Partly Cloudy
4:54 PM 84.9 °F 90.7 °F 72.0 °F 65% 30.04 in 10.0 mi WSW 3.5 mph - N/A   Clear
5:54 PM 86.0 °F 92.2 °F 72.0 °F 63% 30.04 in 10.0 mi SW 5.8 mph - N/A   Clear
6:54 PM 82.9 °F 87.0 °F 70.0 °F 65% 30.06 in 10.0 mi Variable 3.5 mph - N/A   Clear
7:54 PM 80.1 °F 83.6 °F 71.1 °F 74% 30.06 in 10.0 mi WSW 3.5 mph - N/A   Clear
8:54 PM 77.0 °F - 72.0 °F 84% 30.05 in 10.0 mi SSW 5.8 mph - N/A   Clear
9:54 PM 77.0 °F - 66.9 °F 71% 30.05 in 10.0 mi SW 3.5 mph - N/A   Clear
10:54 PM 73.9 °F - 66.9 °F 79% 30.05 in 10.0 mi SW 3.5 mph - N/A   Clear
11:54 PM 72.0 °F - 66.9 °F 84% 30.07 in 10.0 mi Calm Calm - N/A   Clear